Wind_Speed
10 11 13 15 17 17 17 16 16 17 16 16 17 18 18 18 18 18 19 19 19 19 19 19 20 21 21 21 21 22 22 23 23 24 24 24 24 24 24 25 25 25 25
10 11 12 14 15 16 16 17 17 17 17 18 18 18 19 19 20 21 22 22 22 22 22 22 23 24 25 25 25 26 26 26 27 27 27 28 28 28 28 28 28 29 29
10 11 12 14 15 16 17 17 18 18 18 18 19 19 20 21 22 23 24 24 25 25 25 26 27 27 28 28 29 29 29 29 30 30 31 31 31 32 32 32 32 32 33
12 12 13 14 15 17 18 19 19 20 20 20 21 21 22 22 23 24 26 26 27 27 28 29 30 30 31 32 32 32 32 33 33 34 34 34 34 35 35 35 36 36 36
13 13 14 15 16 17 19 20 21 21 22 22 22 23 23 24 25 26 26 28 29 30 31 31 32 33 33 34 35 35 35 35 36 36 37 37 38 38 38 38 38 38 38
13 13 14 15 16 18 20 21 21 22 22 23 23 24 25 26 27 28 29 30 31 32 33 34 35 35 35 36 36 37 38 38 38 39 39 39 40 41 41 41 40 40 40
13 14 14 15 16 18 20 21 22 22 23 24 24 25 26 27 29 30 31 32 33 34 35 35 36 37 37 38 39 40 40 40 41 42 42 42 42 42 42 42 43 43 43
14 15 16 16 17 18 20 21 23 24 25 26 27 27 29 30 31 32 32 33 33 34 35 37 38 39 40 41 42 42 43 44 44 44 44 44 45 46 45 46 46 46 46
16 17 17 18 18 19 20 21 22 24 26 27 28 29 30 30 31 32 34 35 36 37 37 39 40 41 41 43 44 44 44 45 46 47 47 47 47 48 48 48 48 49 49
19 19 19 20 20 21 21 23 24 25 27 29 30 31 32 32 33 34 36 37 39 40 40 41 42 43 44 45 46 46 46 47 49 49 49 50 49 49 49 50 50 50 50
22 22 22 22 23 24 25 25 26 28 29 31 32 33 34 35 35 36 37 39 41 42 43 44 44 45 45 46 47 48 49 51 51 51 51 50 50 50 50 51 51 51 51
24 24 24 25 25 26 27 28 29 30 31 32 33 35 36 37 38 39 41 42 43 44 44 45 45 46 47 48 49 50 51 52 53 52 51 51 52 52 52 52 52 52 52
26 25 26 27 27 28 29 30 32 33 33 34 36 37 38 39 40 41 42 43 44 45 46 46 47 48 48 49 49 50 51 52 52 52 52 52 53 54 54 54 54 53 53
26 27 27 28 29 30 31 32 33 34 35 36 37 38 39 40 42 43 44 45 45 46 47 48 48 49 50 50 51 51 52 52 52 53 53 53 54 54 55 56 56 56 56
28 28 28 30 30 31 32 33 34 35 36 37 38 39 40 41 42 44 45 46 47 48 48 49 49 50 51 51 52 53 53 53 53 54 54 55 55 55 56 56 56 56 56
29 29 30 31 31 32 34 35 36 37 38 39 40 41 42 43 44 45 46 47 47 49 49 50 51 52 52 53 53 54 54 54 54 55 55 55 56 56 57 57 57 57 57
29 30 31 32 33 34 35 36 37 38 39 41 42 43 44 45 45 46 47 48 49 50 51 51 52 52 53 53 53 53 54 54 54 55 55 55 55 56 56 56 57 57 56
28 29 30 32 33 34 35 37 38 40 41 42 43 44 45 46 47 48 49 50 50 51 51 52 52 52 52 52 53 54 54 54 54 55 54 54 54 54 55 55 54 54 54
28 30 31 32 34 36 37 39 40 42 43 45 46 47 47 48 49 49 50 50 50 50 50 51 51 51 52 52 52 52 52 52 53 53 52 52 51 51 51 51 51 50 50
30 31 33 35 36 38 39 41 42 43 44 45 47 48 48 49 49 49 49 49 49 49 49 49 49 50 50 50 50 50 49 49 49 49 49 49 48 48 47 47 47 46 45
31 33 35 36 38 39 41 42 43 44 45 46 47 47 48 48 48 48 48 48 48 47 47 46 46 46 46 45 45 45 45 45 45 44 44 44 43 42 42 42 41 41 40
33 35 36 37 39 40 42 43 44 44 45 46 47 47 47 47 46 46 45 45 44 43 43 42 41 40 39 39 39 39 38 38 38 38 37 37 37 37 36 35 34 34 34
35 36 38 39 40 41 42 42 43 44 44 44 44 45 44 44 43 42 41 41 40 38 37 36 35 34 34 34 33 33 32 32 32 32 31 31 31 31 31 30 30 29 28
36 37 38 39 40 41 41 42 42 42 42 43 43 42 41 39 38 38 37 36 34 33 32 31 31 30 29 29 29 28 28 27 27 26 25 26 26 26 26 25 25 25 25
37 38 39 40 41 41 41 42 41 41 41 41 40 39 37 36 34 33 32 31 30 29 28 27 26 25 25 24 24 23 23 22 21 21 22 22 22 21 21 21 21 21 20
38 38 39 39 40 40 40 40 39 38 38 37 36 34 33 32 31 30 28 28 27 26 25 23 22 22 21 20 20 20 19 19 19 19 18 18 17 17 17 17 17 17 17
Wind_Direction
209 216 217 215 218 220 219 222 225 225 227 234 240 243 243 245 247 250 250 250 251 254 257 260 263 266 268 270 272 275 277 279 282 284 285 287 288 288 288 288 287 287 287
225 221 218 217 218 222 225 228 231 231 235 240 245 247 248 250 252 253 253 253 255 257 260 263 266 268 270 271 273 275 277 278 280 282 283 284 285 285 286 287 287 287 287
236 227 226 227 227 229 232 234 236 238 243 248 251 253 255 257 258 257 256 255 257 260 262 264 267 269 270 272 274 275 277 278 279 280 281 282 283 283 284 284 284 285 285
243 239 238 238 235 236 239 241 242 245 249 252 255 256 258 260 261 261 259 258 260 262 265 267 268 269 270 272 274 276 277 278 279 280 280 281 282 283 283 283 282 282 282
245 242 240 239 241 244 244 246 248 252 254 256 257 259 260 261 262 263 263 263 263 265 267 268 269 270 271 272 273 275 276 278 280 281 280 281 281 282 282 283 282 282 281
244 241 241 245 249 251 251 252 254 257 259 260 260 262 264 264 264 266 266 266 267 268 269 270 271 273 274 275 276 276 276 277 278 279 280 281 280 280 281 281 281 281 281
245 245 247 251 257 259 257 256 258 261 262 263 264 265 267 268 268 269 270 270 271 271 271 272 273 273 274 276 276 277 277 277 278 279 280 280 279 280 280 280 280 280 280
248 251 254 257 261 262 260 260 260 260 263 265 266 268 269 270 270 270 271 272 273 273 274 275 275 275 275 275 276 277 278 277 278 279 279 279 279 279 280 280 280 280 280
252 254 256 259 262 262 262 263 265 265 266 268 270 270 271 273 271 271 273 274 275 275 276 276 276 275 276 276 276 277 277 277 278 278 278 278 279 278 279 280 280 280 280
256 258 261 263 263 264 265 267 269 270 269 270 273 272 273 274 274 275 276 276 277 277 277 278 279 278 278 278 277 276 277 278 279 279 279 279 278 278 279 279 279 280 281
260 261 263 265 266 268 269 270 272 272 273 274 275 276 276 276 276 276 277 278 278 278 278 279 278 278 278 278 278 278 278 278 279 279 280 279 278 278 278 279 279 280 280
261 263 265 267 269 271 272 274 275 276 277 278 279 279 279 277 277 278 278 278 278 277 278 278 278 278 279 279 280 280 279 278 279 280 280 279 278 278 278 279 280 279 279
264 266 267 267 268 271 272 275 277 277 277 279 280 280 280 280 278 278 279 279 278 278 278 278 279 279 279 280 280 280 280 279 279 279 280 280 279 279 279 279 279 279 280
265 268 269 270 271 273 275 277 279 279 279 280 281 282 283 282 281 280 281 280 279 279 280 280 280 280 280 280 280 280 279 280 280 280 281 280 280 280 280 279 279 279 280
267 269 270 272 274 275 277 278 279 280 281 282 282 283 283 283 283 282 282 282 281 281 281 281 281 281 281 281 281 281 281 280 280 280 280 280 280 279 279 279 280 280 281
268 270 272 274 275 277 278 279 280 281 282 282 283 284 284 284 284 284 284 283 283 282 281 281 282 282 282 282 282 282 282 281 281 281 281 280 280 280 281 281 281 281 282
271 273 275 277 278 280 281 281 282 283 283 284 285 286 286 286 286 286 285 285 284 284 283 283 282 282 282 283 283 283 282 282 282 281 281 281 281 281 281 281 281 281 282
273 276 278 280 281 282 283 284 285 286 287 287 287 288 288 288 288 288 288 287 287 286 284 283 283 283 283 283 283 282 282 282 282 282 282 282 282 281 281 281 282 282 282
277 279 281 283 285 286 287 288 288 289 289 290 290 290 290 290 290 290 289 289 289 288 287 286 285 285 285 285 284 284 283 282 282 282 282 282 282 282 282 282 282 281 281
282 284 286 287 288 289 290 290 290 291 291 291 292 292 293 293 293 293 292 291 290 289 288 288 287 287 286 286 285 284 284 283 283 283 283 283 283 282 281 280 281 281 281
287 288 289 290 291 292 292 292 293 293 293 294 294 294 295 295 295 294 294 294 293 293 292 291 290 289 288 287 286 285 285 285 284 284 283 283 282 281 281 281 280 280 281
292 293 294 294 295 295 295 296 296 296 296 296 296 296 296 296 296 296 296 296 296 295 294 293 292 291 289 288 287 287 287 286 285 284 284 283 282 281 281 281 280 281 282
295 295 296 297 297 297 297 297 298 298 299 299 299 299 299 299 299 299 299 298 298 296 295 295 294 293 292 291 291 290 289 288 287 285 284 283 283 284 283 282 282 283 283
296 297 298 299 299 299 299 300 300 300 301 302 302 302 302 302 301 301 301 301 300 298 297 296 297 296 295 294 294 294 293 292 290 287 286 286 287 287 285 284 284 284 285
299 299 299 300 300 300 300 301 301 302 302 303 303 303 302 301 301 302 302 303 302 301 300 299 298 298 299 299 298 298 297 295 293 291 291 291 290 288 287 286 286 286 287
300 300 301 301 301 302 302 302 302 303 303 304 304 304 303 302 301 301 302 302 303 304 303 301 300 300 301 302 303 301 300 300 299 297 296 294 293 292 290 289 289 288 288
Height
5835 5836 5838 5841 5843 5846 5849 5851 5853 5856 5858 5860 5861 5862 5864 5865 5866 5867 5868 5869 5870 5871 5871 5872 5872 5872 5872 5872 5871 5871 5870 5870 5869 5868 5868 5867 5866 5865 5864 5863 5862 5861 5860
5833 5835 5837 5839 5842 5844 5846 5849 5851 5853 5854 5856 5857 5858 5860 5861 5862 5862 5863 5864 5865 5866 5866 5867 5867 5867 5867 5866 5866 5865 5864 5864 5863 5862 5861 5861 5860 5859 5858 5856 5855 5854 5853
5831 5833 5835 5837 5839 5841 5844 5846 5847 5849 5851 5852 5853 5854 5855 5856 5857 5857 5858 5858 5859 5860 5860 5860 5860 5860 5860 5860 5859 5858 5858 5857 5856 5855 5854 5853 5852 5851 5850 5849 5848 5846 5845
5830 5831 5833 5834 5836 5838 5840 5842 5843 5845 5846 5847 5848 5849 5850 5851 5851 5851 5852 5852 5853 5853 5853 5853 5853 5853 5852 5852 5851 5851 5850 5849 5848 5847 5845 5844 5843 5842 5841 5840 5839 5838 5836
5827 5828 5830 5831 5833 5835 5836 5838 5839 5840 5842 5843 5843 5844 5845 5845 5845 5845 5845 5846 5846 5846 5846 5846 5845 5845 5844 5844 5843 5842 5841 5840 5839 5838 5836 5835 5834 5832 5831 5830 5829 5827 5826
5825 5826 5827 5828 5830 5831 5832 5833 5834 5836 5836 5837 5838 5838 5839 5839 5839 5839 5839 5839 5839 5838 5838 5838 5837 5836 5835 5834 5833 5832 5831 5830 5829 5828 5827 5825 5824 5822 5821 5819 5818 5817 5816
5822 5823 5824 5825 5826 5827 5828 5829 5830 5830 5831 5831 5832 5832 5832 5832 5832 5832 5831 5831 5831 5830 5829 5828 5827 5826 5826 5824 5823 5822 5821 5820 5819 5817 5816 5814 5812 5811 5809 5808 5807 5806 5805
5818 5819 5820 5821 5822 5822 5823 5823 5824 5824 5825 5825 5825 5825 5824 5824 5823 5823 5822 5822 5821 5821 5820 5818 5817 5816 5815 5813 5812 5811 5810 5809 5807 5805 5804 5802 5800 5798 5797 5796 5794 5793 5792
5814 5815 5816 5817 5817 5817 5817 5817 5818 5818 5818 5818 5818 5817 5816 5815 5815 5814 5814 5812 5812 5811 5809 5808 5806 5805 5803 5801 5800 5799 5797 5796 5794 5792 5791 5789 5787 5785 5784 5782 5780 5779 5778
5810 5810 5811 5812 5812 5812 5812 5812 5812 5811 5811 5811 5810 5809 5808 5807 5806 5805 5804 5803 5801 5800 5798 5796 5795 5793 5791 5789 5787 5786 5784 5783 5781 5779 5777 5775 5773 5771 5770 5768 5766 5764 5763
5804 5804 5805 5805 5805 5805 5805 5805 5805 5804 5803 5802 5802 5800 5799 5798 5796 5795 5794 5792 5790 5788 5786 5785 5783 5781 5779 5776 5774 5773 5771 5769 5767 5764 5762 5760 5758 5757 5755 5753 5752 5750 5748
5798 5798 5798 5798 5798 5798 5798 5797 5797 5796 5795 5794 5792 5791 5789 5788 5786 5784 5783 5781 5779 5777 5774 5772 5770 5768 5766 5763 5761 5759 5756 5754 5752 5750 5747 5745 5743 5742 5740 5738 5736 5734 5732
5791 5791 5791 5791 5791 5791 5790 5789 5788 5787 5785 5784 5782 5781 5779 5777 5775 5773 5771 5768 5766 5764 5761 5759 5757 5754 5752 5749 5747 5744 5741 5739 5737 5734 5732 5730 5728 5726 5724 5722 5720 5717 5715
5784 5784 5784 5784 5783 5782 5781 5780 5779 5777 5776 5774 5772 5770 5767 5765 5763 5761 5758 5756 5753 5750 5748 5745 5742 5740 5737 5734 5732 5729 5727 5724 5721 5719 5716 5714 5712 5710 5707 5705 5703 5700 5699
5777 5776 5776 5775 5775 5773 5772 5771 5769 5768 5766 5764 5761 5759 5756 5753 5750 5748 5745 5742 5739 5736 5733 5730 5728 5725 5722 5719 5716 5713 5711 5708 5705 5703 5700 5698 5695 5693 5691 5688 5686 5683 5681
5769 5768 5767 5766 5765 5764 5762 5761 5759 5757 5755 5752 5750 5747 5744 5741 5737 5734 5731 5728 5725 5721 5718 5715 5712 5709 5706 5703 5700 5697 5694 5692 5689 5686 5684 5681 5679 5676 5674 5671 5669 5666 5664
5760 5759 5758 5757 5756 5754 5752 5750 5748 5746 5743 5741 5738 5734 5731 5728 5724 5720 5717 5713 5710 5706 5703 5700 5697 5693 5690 5687 5683 5680 5678 5675 5672 5669 5666 5664 5661 5659 5656 5654 5651 5649 5647
5752 5751 5749 5748 5746 5744 5742 5739 5737 5734 5731 5728 5725 5721 5718 5714 5710 5706 5702 5698 5694 5691 5687 5683 5680 5677 5673 5670 5667 5664 5661 5658 5655 5652 5649 5646 5644 5641 5639 5636 5634 5632 5630
5743 5742 5740 5738 5736 5733 5731 5728 5725 5721 5718 5714 5710 5707 5703 5699 5695 5691 5686 5682 5678 5674 5670 5667 5663 5660 5657 5653 5650 5646 5643 5640 5637 5634 5632 5629 5626 5624 5622 5620 5617 5615 5613
5733 5732 5730 5727 5725 5722 5719 5716 5712 5708 5704 5700 5696 5692 5688 5683 5679 5675 5671 5666 5662 5658 5654 5650 5647 5643 5640 5636 5633 5629 5626 5623 5620 5618 5615 5613 5610 5608 5606 5604 5601 5600 5598
5724 5721 5719 5716 5713 5710 5706 5703 5699 5695 5690 5686 5682 5677 5673 5668 5664 5659 5655 5651 5646 5642 5638 5634 5630 5627 5623 5620 5617 5613 5610 5607 5605 5602 5600 5598 5595 5593 5591 5589 5587 5586 5584
5713 5711 5708 5705 5701 5698 5694 5690 5685 5681 5676 5672 5667 5663 5659 5654 5649 5645 5640 5636 5632 5628 5624 5620 5616 5612 5609 5606 5602 5599 5596 5593 5591 5589 5587 5584 5582 5580 5578 5577 5575 5573 5572
5703 5700 5697 5693 5689 5685 5681 5677 5672 5668 5663 5659 5654 5649 5645 5640 5636 5632 5627 5623 5618 5614 5611 5607 5603 5600 5597 5594 5591 5588 5585 5582 5580 5577 5575 5573 5571 5569 5568 5566 5564 5563 5562
5692 5689 5685 5681 5677 5673 5669 5665 5660 5655 5651 5646 5641 5637 5632 5628 5624 5619 5615 5611 5607 5603 5600 5597 5593 5590 5587 5584 5581 5578 5575 5573 5570 5568 5566 5564 5562 5560 5559 5557 5555 5554 5553
5681 5677 5673 5669 5665 5661 5657 5652 5648 5644 5639 5635 5630 5625 5621 5617 5613 5609 5605 5602 5598 5595 5591 5588 5585 5581 5578 5575 5573 5570 5568 5565 5563 5561 5559 5557 5555 5553 5551 5550 5548 5547 5546
5670 5666 5662 5658 5654 5649 5645 5641 5637 5632 5628 5624 5620 5615 5611 5607 5604 5600 5597 5594 5590 5587 5584 5580 5577 5575 5572 5569 5566 5564 5562 5559 5557 5555 5553 5551 5549 5547 5545 5544 5542 5541 5539